Holland, MI

5:09 PM EST on February 06, 2016 (GMT -0500)
Tulip City

Weather History for KBIV - March, 2012

Change the Weather History Date:

Monday, March 5, 2012

  Actual Average Record
Temperature  
Mean Temperature 26 °F 33 °F  
Max Temperature 30 °F 41 °F 69 °F (1992)
Min Temperature 21 °F 26 °F -2 °F (2015)
Degree Days  
Heating Degree Days 39 32  
Month to date heating degree days 163  
Since 1 July heating degree days 4663  
Cooling Degree Days 0 0  
Month to date cooling degree days 0  
Year to date cooling degree days 0  
Moisture  
Dew Point 15 °F    
Average Humidity 64    
Maximum Humidity 74    
Minimum Humidity 53    
Precipitation  
Precipitation T in 0.08 in 1.15 in (1976)
Month to date precipitation 0.51 0.41  
Year to date precipitation 4.30  
Sea Level Pressure  
Sea Level Pressure 30.26 in    
Wind  
Wind Speed 5 mph (NW)    
Max Wind Speed 14 mph    
Max Gust Speed 21 mph    
Visibility 9 miles    
Events Snow    
T = Trace of Precipitation, MM = Missing Value Source: NWS Daily Summary

Daily Weather History Graph

Daily Weather History Graph

Search for Another Location

Airport or City:

Trip Planner

Search our weather history database for the weather conditions in past years. The results will help you decide how hot, cold, wet, or windy it might be!

Date:

Astronomy

Mar. 05, 2012 Rise Set
Actual Time 7:12 AM EST 6:39 PM EST
Civil Twilight 6:44 AM EST 7:07 PM EST
Nautical Twilight 6:11 AM EST 7:40 PM EST
Astronomical Twilight 5:39 AM EST 8:13 PM EST
Moon 3:54 PM EST (3/5) 5:15 AM EST (3/5)
Length of Visible Light 12h 23m
Length of Day
11h 26m
Waxing Gibbous, 91% of the Moon is Illuminated
Mar 5
Waxing Gibbous
Mar 8
Full
Mar 14
Last Quarter
Mar 22
New
Mar 30
First Quarter

Hourly Weather History & Observations

Time (EST) Temp. Windchill Dew Point Humidity Pressure Visibility Wind Dir Wind Speed Gust Speed Precip Events Conditions
12:53 AM 23.0 °F 13.9 °F 12.9 °F 65% 30.00 in 10.0 mi NNE 8.1 mph 16.1 mph N/A   Overcast
1:53 AM 23.0 °F 14.7 °F 12.9 °F 65% 30.02 in 10.0 mi NNE 6.9 mph - N/A   Overcast
2:53 AM 21.9 °F 15.7 °F 10.0 °F 60% 30.05 in 10.0 mi North 4.6 mph - N/A   Partly Cloudy
3:53 AM 21.9 °F 15.7 °F 9.0 °F 58% 30.07 in 10.0 mi Variable 4.6 mph - N/A   Overcast
4:53 AM 21.9 °F 17.2 °F 9.0 °F 58% 30.11 in 10.0 mi NNE 3.5 mph - N/A   Overcast
5:53 AM 21.9 °F - 10.0 °F 60% 30.14 in 10.0 mi Calm Calm - N/A   Overcast
6:53 AM 21.9 °F - 10.9 °F 63% 30.19 in 10.0 mi Calm Calm - N/A   Overcast
7:53 AM 21.9 °F 17.2 °F 12.9 °F 68% 30.23 in 10.0 mi Variable 3.5 mph - 0.00 in   Overcast
8:06 AM 21.2 °F - 14.0 °F 74% 30.21 in 1.8 mi Calm Calm - 0.00 in Snow Light Snow
8:15 AM 21.2 °F 16.4 °F 15.8 °F 80% 30.21 in 1.8 mi NNW 3.5 mph - 0.00 in Snow Light Snow
8:25 AM 21.2 °F - 15.8 °F 80% 30.22 in 2.5 mi Calm Calm - 0.00 in Snow Light Snow
8:35 AM 21.2 °F 16.4 °F 15.8 °F 80% 30.22 in 4.0 mi NW 3.5 mph - 0.00 in Snow Light Snow
8:53 AM 23.0 °F - 16.0 °F 74% 30.27 in 10.0 mi Calm Calm - 0.00 in   Overcast
9:53 AM 25.0 °F 19.3 °F 16.0 °F 69% 30.30 in 10.0 mi North 4.6 mph - 0.00 in   Overcast
10:53 AM 27.0 °F 19.5 °F 17.1 °F 66% 30.33 in 7.0 mi NW 6.9 mph - 0.00 in Snow Light Snow
11:53 AM 28.0 °F 21.7 °F 17.1 °F 63% 30.35 in 10.0 mi NNW 5.8 mph - 0.00 in   Overcast
12:53 PM 28.0 °F 18.6 °F 17.1 °F 63% 30.37 in 10.0 mi NW 10.4 mph 17.3 mph 0.00 in Snow Light Snow
1:53 PM 28.9 °F 20.4 °F 17.1 °F 61% 30.38 in 10.0 mi NW 9.2 mph - 0.00 in   Overcast
2:53 PM 30.0 °F 22.4 °F 16.0 °F 56% 30.38 in 10.0 mi WNW 8.1 mph - N/A   Overcast
3:53 PM 28.9 °F 21.1 °F 15.1 °F 56% 30.38 in 10.0 mi West 8.1 mph - N/A   Mostly Cloudy
4:53 PM 28.9 °F 21.9 °F 15.1 °F 56% 30.38 in 10.0 mi West 6.9 mph - N/A   Partly Cloudy
5:53 PM 28.9 °F 20.4 °F 16.0 °F 58% 30.38 in 10.0 mi SSW 9.2 mph - N/A   Clear
6:53 PM 28.9 °F 21.9 °F 17.1 °F 61% 30.36 in 10.0 mi South 6.9 mph - N/A   Clear
7:53 PM 27.0 °F 20.5 °F 18.0 °F 69% 30.35 in 10.0 mi SE 5.8 mph - N/A   Partly Cloudy
8:53 PM 28.9 °F 21.1 °F 18.0 °F 64% 30.36 in 10.0 mi SE 8.1 mph - N/A   Overcast
9:53 PM 30.0 °F 22.4 °F 18.0 °F 61% 30.36 in 10.0 mi SSE 8.1 mph - N/A   Overcast
10:53 PM 30.0 °F 21.7 °F 18.0 °F 61% 30.36 in 10.0 mi SSE 9.2 mph - N/A   Overcast
11:53 PM 30.0 °F 21.1 °F 19.0 °F 64% 30.33 in 10.0 mi SSE 10.4 mph - N/A   Partly Cloudy